Location: Altenst�hlen
(53.5567°N, 8.9425°E)
Time: 04:31:38
(UTC+00:00)

STARLINK-33 - Pass Details

Date: 23 October 2019
Orbit: 548 x 551 km, 53.0° (Epoch: 21 November)

Event Time Altitude Azimuth Distance (km) Brightness Sun altitude
Rises 18:18:04 0° 281° (W) 2,721 8.8 -19.5°
Reaches altitude 10° 18:20:19 10° 278° (W) 1,826 7.5 -19.8°
Maximum altitude 18:24:25 65° 197° (SSW) 605 3.7 -20.5°
Enters shadow 18:25:08 54° 146° (SE) 676 3.7 -20.6°
